Flag for U.S.A. Weather past 2 weeks in Simi Valley, California, U.S.A.

Now
63 °F

Clear.


Feels Like: 63 °F
Forecast: 58 / 73 °F
Wind: 6 mph from North

Location: Van Nuys Airport

Current Time: Jan 29, 2015 at 4:45:30 AM

Latest Report: Jan 29, 2015 at 3:51 AM


Visibility: 10 mi

Pressure: 30.02 "Hg

Humidity: 48%

Dew point: 43 °F

Location of Simi ValleyLocation

Historic Weather in Simi Valley — Graph

°F

Simi Valley temperature yesterday

Maximum temperature yesterday: 72 °F (at 12:51 PM)
Minimum temperature yesterday: 52 °F (at 2:51 AM)
Average temperature yesterday: 62 °F

Past Weeks' High & Low Weather Summary

 TemperatureHumidityPressure
High80 °F (Jan 25, 12:51 PM)97% (Jan 21, 9:51 AM)30.27 "Hg (Jan 21, 9:51 AM)
Low43 °F (Jan 15, 6:51 AM)11% (Jan 23, 11:51 AM)29.90 "Hg (Jan 20, 1:51 PM)
Average61 °F46%30.10 "Hg
* Reported Jan 14 3:51 AM — Jan 29 3:51 AM, Simi Valley, Weather by CustomWeather, © 2014

Note: Actual official high and low records may vary slightly from our data, if they occured in-between our weather recording intervals... More about our weather records

Advertising

Simi Valley weather history for previous 24 hours

 ConditionsComfort  
Time TempWeatherWind HumidityBarometerVisibility
3:51 AM
Jan 29
63 °FClear.6 mph48%30.02 "Hg10 mi
2:51 AM62 °FClear.No wind52%30.04 "Hg10 mi
1:51 AM65 °FClear.10 mph45%30.03 "Hg10 mi
12:51 AM65 °FClear.10 mph45%30.03 "Hg10 mi
11:51 PM
Jan 28
65 °FClear.13 mph47%30.05 "Hg10 mi
10:51 PM65 °FClear.12 mph47%30.07 "Hg10 mi
9:51 PM65 °FClear.12 mph47%30.09 "Hg10 mi
8:51 PM65 °FClear.6 mph47%30.09 "Hg10 mi
7:51 PM65 °FClear.7 mph49%30.08 "Hg10 mi
6:51 PM65 °FClear.8 mph51%30.09 "Hg10 mi
5:51 PM66 °FClear.9 mph49%30.07 "Hg10 mi
4:51 PM67 °FSunny.8 mph53%30.06 "Hg10 mi
3:51 PM69 °FSunny.7 mph49%30.06 "Hg10 mi
2:51 PM70 °FSunny.8 mph46%30.07 "Hg10 mi
1:51 PM71 °FSunny.9 mph44%30.06 "Hg10 mi
12:51 PM72 °FSunny.9 mph40%30.07 "Hg10 mi
11:51 AM71 °FSunny.10 mph42%30.09 "Hg10 mi
10:51 AM69 °FSunny.15 mph47%30.12 "Hg10 mi
9:51 AM65 °FPartly sunny.10 mph54%30.14 "Hg10 mi
8:51 AM62 °FSunny.6 mph60%30.15 "Hg10 mi
7:51 AM56 °FSunny.3 mph72%30.15 "Hg10 mi
6:51 AM53 °FClear.5 mph77%30.14 "Hg10 mi
5:51 AM53 °FClear.5 mph80%30.13 "Hg10 mi
4:51 AM53 °FClear.No wind80%30.13 "Hg10 mi
Weather by CustomWeather, © 2014

See weather overviewHow to use our weather pages